Regional Weather Roundup
Issued by NWS Cleveland, OH

Home | Current Version | Previous Version | Graphics & Text | Print | Product List | Glossary On
Versions: 1 2 3 4 5 6 7 8 9 10 11 12 13 14 15 16 17 18 19 20 21 22 23 24 25 26 27 28 29 30 31 32 33 34 35 36 37 38 39 40 41 42 43 44 45 46 47 48 49 50
000
ASUS41 KCLE 130700
RWRCLE
OHIO REGIONAL WEATHER ROUNDUP
NATIONAL WEATHER SERVICE WILMINGTON, OH
200 AM EST WED DEC 13 2017

NOTE: "FAIR" INDICATES FEW OR NO CLOUDS BELOW 12,000 FEET WITH NO
SIGNIFICANT WEATHER AND/OR OBSTRUCTIONS TO VISIBILITY.

OHZ001>008-015>018-024>027-034-035-043-044-130800-
   NORTHWEST OHIO

CITY           SKY/WX    TMP DP  RH WIND       PRES   REMARKS
DEFIANCE       CLOUDY    18  11  74 W5        29.91F WCI  11
FINDLAY        CLOUDY    19  10  68 W8        29.89S WCI   9
TOLEDO EXPRESS CLOUDY    19   9  65 W10       29.89S WCI   7
TOLEDO EXEC    CLOUDY    19   6  57 W13       29.90S WCI   6
LIMA           CLOUDY    18  11  74 W14       29.90R WCI   4
$$

OHZ009>014-019>023-028>033-038-089-130800-
   NORTHEAST OHIO

CITY           SKY/WX    TMP DP  RH WIND       PRES   REMARKS
CLE-HOPKINS    FLURRIES  19   5  54 W10       29.85S WCI   7
CLE-LAKEFRONT  CLOUDY    21   8  57 NW25G37   29.82S WCI   4
CUY CO. ARPT   NOT AVBL
LORAIN-ELYRIA  CLOUDY    17   4  56 W8        29.85S WCI   7
ASHTABULA      CLOUDY    17   8  67 NW15G24   29.76S WCI   2
AKRON-CANTON   LGT SNOW  15   8  73 W13G22    29.80S VSB 1   WCI   1
WOOSTER        NOT AVBL
MANSFIELD      CLOUDY    16   4  59 W9        29.84S WCI   4
YOUNGSTOWN     LGT SNOW  15   9  76 W10       29.74F WCI   2
$$

OHZ042-051>053-060>062-070>072-077>081-130800-
  SOUTHWEST OHIO

CITY           SKY/WX    TMP DP  RH WIND       PRES   REMARKS
CINC-COVINGTON FAIR      18   9  68 W7        29.97F WCI   9
CINC-LUNKEN    FAIR      21   9  59 W7        30.01F WCI  12
HAMILTON       FAIR      16  10  77 W5        29.99F WCI   9
DAYTON         NOT AVBL
WRIGHT-PAT AFB FAIR      17   7  62 W10       29.93F WCI   5
DAYTON GENERAL FAIR      17   8  67 W6        29.93F WCI   9
WILMINGTON     FAIR      15   9  76 W9        29.93F WCI   3
$$

OHZ036-037-039>041-045>050-054>059-063>069-073>076-082>088-130800-
  CENTRAL AND SOUTHEAST OHIO

CITY           SKY/WX    TMP DP  RH WIND       PRES   REMARKS
COLUMBUS       FLURRIES  20  14  77 W7        29.90F WCI  11
OSU AIRPORT    CLOUDY    19  12  74 W10       29.91S WCI   7
BOLTON FIELD   NOT AVBL
RICKENBACK AFB NOT AVBL
NEWARK         CLOUDY    20   9  62 W8        29.89S WCI  10
MARION         CLOUDY    18   8  65 W9        29.89  WCI   7
LANCASTER      CLOUDY    19  11  70 W7        29.91F WCI  10
ZANESVILLE     CLOUDY    20   6  55 W10       29.88S WCI   9
NEW PHILLY     MOCLDY    16   3  56 W12       29.86S WCI   3
$$



USA.gov is the U.S. government's official web portal to all federal, state and local government web resources and services.